Showing default

COSMOS 1559, 14998

Orbit data source: Space-Track

COSMOS 1559, 14998 is a payload satellite owned by GUKOS (CIS) in LEO that was launched on Mon, 28 May 1984 UTC via a KOSMOS 11K65M launch vehicle from the Plesetsk Missile And Space Complex (PKMTR). Payload-class satellites include a variety of spacecraft equipped with specific instruments for various scientific and technological missions. These include communications satellites like Starlink; space stations such as the ISS; scientific satellites like the Hubble; Earth observation satellites from companies like Planet Labs, Umbra, and HawkEye 360; GPS; miniature CubeSats for education and research; and military/defense satellites.

Loading next visibility...
Identifier
14998, 1984-052A
Orbit
LEO
Country
Flag of CISCIS
Related business
Manufacturer
NPO PM
Mission
Defense Communications
Bus & Motor
STRELA-1 11F625, Unknown motor
Mass
60 kg wet, 60 kg dry
Launch date (UTC)
1984-05-28 (41 years ago)
Launch vehicle
KOSMOS 11K65M
Launch site
Plesetsk Missile And Space Complex (PKMTR)
Object type
Payload
Rocket body
Debris
Shape & HBR
Sphere, 0.4 m
Radar Cross Section
0.588 m², Medium (>0.1 m² and < 1m²)

Expand to show TLE details & history
Last TLE update: 10 hours ago

TLE from 10 hours ago
0 COSMOS 1559
1 14998U 84052A   25258.55336900 -.00000011  00000-0  35274-4 0  9991
2 14998  74.0137 184.4545 0025429 170.1158   2.9437 12.43974922875380
Epoch: 2025-09-15T13:16Z
TLE epoch observation values (Epoch: 2025-09-15T13:16:51.081Z)
Latitude
6.59279°
Longitude
168.59714°
Altitude
1,471.575 km
Speed
7.137 km/s
True Right ascension
00h 10m 15s
True Declination
6° 33' 26"
Sunlit
Object was in full shadow at epoch
Visualization orbit readout
Latitude
Unknown
Longitude
Unknown
Altitude
Unknown
Speed
Unknown
Apparent Right ascension
Unknown
Apparent Declination
Unknown
Sunlit
N/A
Visualization observer readout
Local Sidereal Time
15:46:23
Azimuth
Unknown
Elevation
Unknown
Doppler factor
Unknown
Orbital elements
Apogee altitude
1,507.643 km
Perigee altitude
1,467.639 km
Semi-major axis
7,865.778 km
Eccentricity
0.00254
Inclination
74.0137°
RAAN
184.4545°
Arg. of periapsis
170.1158°
True anomaly
2.95871°
Mean anomaly
2.9437°
Eccentric anomaly
2.9512°
Mean motion
3.11122 °/min
Orbital period
115.71 mins
BSTAR
0.000035274
Loading maneuver chart data...
Computing Atmospheric mass density...
Loading historical data...
Loading historical data...
Loading historical data...
Loading historical data...
Loading historical data...
Loading historical data...
Loading historical data...

Documentation

Showing up to 5 results
|